Millville, NJ

10:28 AM EDT on October 18, 2019 (GMT -0400)
Millville Municipal

Weather History for KMIV - September, 2019

Change the Weather History Date:

Monday, September 16, 2019

  Actual Average Record
Temperature  
Mean Temperature 70 °F -  
Max Temperature 84 °F 77 °F 95 °F (1970)
Min Temperature 59 °F 57 °F 41 °F (2001)
Cooling Degree Days 6    
Growing Degree Days 20 (Base 50)    
Moisture  
Dew Point 59 °F    
Average Humidity 72    
Maximum Humidity 97    
Minimum Humidity 37    
Precipitation  
Precipitation 0.00 in - - ()
Sea Level Pressure  
Sea Level Pressure 30.05 in    
Wind  
Wind Speed 2 mph (WSW)    
Max Wind Speed 5 mph    
Max Gust Speed -    
Visibility 8 miles    
Events Fog    
Averages and records for this station are not official NWS values.
T = Trace of Precipitation, MM = Missing Value Source: NWS Daily Summary

Daily Weather History Graph

Daily Weather History Graph

Search for Another Location

Airport or City:

Astronomy

Sep. 16, 2019 Rise Set
Actual Time 6:42 AM EDT 7:07 PM EDT
Civil Twilight 6:15 AM EDT 7:34 PM EDT
Nautical Twilight 5:43 AM EDT 8:05 PM EDT
Astronomical Twilight 5:11 AM EDT 8:38 PM EDT
Moon 8:41 PM EDT (9/16) 8:46 AM EDT (9/16)
Length of Visible Light 13h 19m
Length of Day
12h 25m
Waning Gibbous, 94% of the Moon is Illuminated
Sep 16
Waning Gibbous
Sep 21
Last Quarter
Sep 28
New
Oct 5
First Quarter
Oct 13
Full

Hourly Weather History & Observations

Time (EDT) Temp. Heat Index Dew Point Humidity Pressure Visibility Wind Dir Wind Speed Gust Speed Precip Events Conditions
12:16 AM 62.1 °F - 60.1 °F 93% 30.10 in 2.5 mi West 3.5 mph - N/A   Scattered Clouds
12:27 AM 61.0 °F - 60.1 °F 97% 30.10 in 0.2 mi West 3.5 mph - N/A Fog Fog
12:54 AM 62.1 °F - 60.1 °F 93% 30.09 in 0.2 mi Calm Calm - N/A Fog Fog
1:05 AM 61.0 °F - 60.1 °F 97% 30.09 in 1.0 mi Calm Calm - N/A   Mist
1:19 AM 60.1 °F - 59.0 °F 96% 30.09 in 3.0 mi Calm Calm - N/A   Overcast
1:40 AM 59.0 °F - 57.9 °F 96% 30.09 in 6.0 mi Calm Calm - N/A   Scattered Clouds
1:54 AM 59.0 °F - 57.0 °F 93% 30.08 in 7.0 mi WSW 3.5 mph - N/A   Clear
2:54 AM 61.0 °F - 59.0 °F 93% 30.07 in 10.0 mi Calm Calm - N/A   Overcast
3:54 AM 61.0 °F - 59.0 °F 93% 30.06 in 9.0 mi Calm Calm - N/A   Scattered Clouds
4:54 AM 59.0 °F - 57.9 °F 96% 30.06 in 7.0 mi Calm Calm - N/A   Clear
5:54 AM 59.0 °F - 57.9 °F 96% 30.06 in 10.0 mi Calm Calm - N/A   Mostly Cloudy
6:54 AM 59.0 °F - 57.9 °F 96% 30.07 in 4.0 mi Calm Calm - N/A   Mostly Cloudy
7:54 AM 64.0 °F - 61.0 °F 90% 30.08 in 10.0 mi Calm Calm - N/A   Mostly Cloudy
8:54 AM 73.0 °F - 61.0 °F 66% 30.08 in 10.0 mi Calm Calm - N/A   Clear
9:54 AM 80.1 °F 80.4 °F 57.0 °F 45% 30.08 in 10.0 mi NNW 4.6 mph - N/A   Clear
10:54 AM 82.0 °F 81.7 °F 57.0 °F 42% 30.06 in 10.0 mi Calm Calm - N/A   Clear
11:54 AM 82.9 °F 81.9 °F 54.0 °F 37% 30.05 in 10.0 mi SSW 4.6 mph - N/A   Overcast
12:54 PM 82.9 °F 82.0 °F 55.0 °F 38% 30.04 in 10.0 mi SW 4.6 mph - N/A   Overcast
1:54 PM 81.0 °F 80.8 °F 55.9 °F 42% 30.02 in 10.0 mi Variable 3.5 mph - N/A   Mostly Cloudy
2:54 PM 82.0 °F 81.7 °F 57.0 °F 42% 30.01 in 10.0 mi Variable 3.5 mph - N/A   Overcast
3:54 PM 82.0 °F 81.6 °F 55.9 °F 41% 29.99 in 10.0 mi Variable 4.6 mph - N/A   Overcast
4:54 PM 80.1 °F 80.6 °F 57.9 °F 47% 29.98 in 10.0 mi Variable 3.5 mph - N/A   Overcast
5:54 PM 79.0 °F - 62.1 °F 56% 29.97 in 10.0 mi Variable 3.5 mph - N/A   Mostly Cloudy
6:54 PM 75.9 °F - 61.0 °F 60% 29.98 in 10.0 mi Calm Calm - N/A   Overcast
7:54 PM 73.9 °F - 61.0 °F 64% 29.99 in 10.0 mi Calm Calm - N/A   Overcast
8:54 PM 70.0 °F - 62.1 °F 76% 30.00 in 10.0 mi East 3.5 mph - N/A   Partly Cloudy
9:54 PM - - - N/A% 30.01 in 10.0 mi Calm Calm - N/A   Overcast
10:54 PM - - - N/A% 30.02 in 10.0 mi Calm Calm - N/A   Mostly Cloudy
11:54 PM - - - N/A% 30.03 in 10.0 mi Calm Calm - N/A   Mostly Cloudy